User: anonymous   Login
Location: Libas
(9.8833°N, 125.9833°E)
Time: 03:00:01
(UTC+00:00)
Language:

Cosmos 1331 Rocket - Orbit

View from above orbital plane
View from above orbital plane
View from above satellite
View from above satellite

Ground track
Ground track

The orbit data is extracted from the following two-line orbital elements,

1 13028U 82001B   21018.77248910  .00000008  00000-0  11224-4 0  9997
2 13028  74.0419 132.3553 0020891 250.5271 109.3626 14.38414271 45444
Epoch (UTC): 18 January 2021 18:32:23
Eccentricity: 0.0020891
inclination: 74.0419°
perigee height: 749 km
apogee height: 778 km
right ascension of ascending node: 132.3553°
argument of perigee: 250.5271°
revolutions per day: 14.38414271
mean anomaly at epoch: 109.3626°
orbit number at epoch: 4544

The dashed part of the orbit path shows where the satellite is in the earth's shadow,  

DLR